Location: Newark
(10.7761°N, 106.6983°E)
Time: 22:31:39
(UTC+00:00)

OTV 5 (USA 277) - Visible Passes

Search period start: 18 July 2019 00:00
Search period end: 28 July 2019 00:00
Orbit: 299 x 335 km, 54.5° (Epoch: 13 July)

Date Brightness Start Highest point End Pass type
(mag) Time Alt. Az. Time Alt. Az. Time Alt. Az.
18 Jul ? 11:49:11 10° N 11:51:07 17° NE 11:52:54 11° E visible
19 Jul ? 12:02:53 10° NNW 12:05:41 87° ENE 12:07:39 17° SE visible
20 Jul ? 12:18:11 10° WNW 12:20:09 17° WSW 12:22:07 10° SSW visible
25 Jul ? 21:49:01 10° SE 21:49:28 10° ESE 21:49:55 10° ESE visible
26 Jul ? 22:01:24 10° SSW 22:03:56 51° ESE 22:06:29 10° NE visible
27 Jul ? 22:16:16 10° WSW 22:18:27 24° NW 22:20:39 10° N visible
